Weather History for Branson, MO

Change the Weather History Date:

Friday, August 23, 2013

  Actual Average (KHRO) Record (KHRO)
Temperature  
Mean Temperature 76 °F 77 °F  
Max Temperature 87 °F 88 °F 103 °F (1943)
Min Temperature 66 °F 66 °F 47 °F (1949)
Degree Days  
Heating Degree Days 0 0  
Month to date heating degree days 0  
Since 1 June heating degree days 6  
Since 1 July heating degree days 0  
Cooling Degree Days 12 12  
Month to date cooling degree days 308  
Year to date cooling degree days 1126  
Since 1 June cooling degree days 987  
Growing Degree Days 26 (Base 50)    
Moisture  
Dew Point 67 °F    
Average Humidity 79    
Maximum Humidity 100    
Minimum Humidity 46    
Precipitation  
Precipitation 0.00 in 0.10 in 1.50 in (1923)
Month to date precipitation 2.68  
Year to date precipitation 28.06  
Snow  
Snow 0.00 in 0.00 in - ()
Month to date snowfall 0.0  
Since 1 June snowfall 0.0  
Since 1 July snowfall 0.0  
Snow Depth -    
Sea Level Pressure  
Sea Level Pressure 30.10 in    
Wind  
Wind Speed 2 mph (SE)    
Max Wind Speed 6 mph    
Max Gust Speed -    
Visibility 10 miles    
Events      
T = Trace of Precipitation, MM = Missing Value Source: NWS Daily Summary

Daily Weather History Graph

Daily Weather History Graph

Search for Another Location

Airport:

Trip Planner

Search our weather history database for the weather conditions in past years. The results will help you decide how hot, cold, wet, or windy it might be!

Date:

Astronomy

Aug. 23, 2013 Rise Set
Actual Time 6:37 AM CDT 7:52 PM CDT
Civil Twilight 6:10 AM CDT 8:19 PM CDT
Nautical Twilight 5:38 AM CDT 8:51 PM CDT
Astronomical Twilight 5:04 AM CDT 9:25 PM CDT
Moon 9:19 PM CDT (8/23) 9:26 AM CDT (8/23)
Length of Visible Light 14h 09m
Length of Day
13h 15m
Waning Gibbous, 91% of the Moon is Illuminated
Aug 23
Waning Gibbous
Aug 28
Last Quarter
Sep 5
New
Sep 12
First Quarter
Sep 19
Full

Hourly Weather History & Observations

Time (CDT) Temp. Heat Index Dew Point Humidity Pressure Visibility Wind Dir Wind Speed Gust Speed Precip Events Conditions
12:15 AM 71.6 °F - 64.4 °F 78% 30.11 in 10.0 mi SSE 3.5 mph - N/A   Clear
12:35 AM 73.4 °F - 64.4 °F 73% 30.11 in 10.0 mi Calm Calm - N/A   Clear
12:55 AM 71.6 °F - 64.4 °F 78% 30.10 in 10.0 mi Calm Calm - N/A   Clear
1:15 AM 71.6 °F - 64.4 °F 78% 30.10 in 10.0 mi Calm Calm - N/A   Clear
1:35 AM 69.8 °F - 64.4 °F 83% 30.10 in 10.0 mi Calm Calm - N/A   Clear
1:55 AM 71.6 °F - 64.4 °F 78% 30.09 in 10.0 mi Calm Calm - N/A   Clear
2:15 AM 69.8 °F - 64.4 °F 83% 30.09 in 10.0 mi Calm Calm - N/A   Clear
2:35 AM 68.0 °F - 64.4 °F 88% 30.09 in 10.0 mi Calm Calm - N/A   Clear
2:55 AM 68.0 °F - 64.4 °F 88% 30.09 in 10.0 mi Calm Calm - N/A   Clear
3:15 AM 68.0 °F - 64.4 °F 88% 30.09 in 10.0 mi Calm Calm - N/A   Clear
3:35 AM 66.2 °F - 64.4 °F 94% 30.09 in 10.0 mi Calm Calm - N/A   Clear
3:55 AM 68.0 °F - 66.2 °F 94% 30.09 in 10.0 mi Calm Calm - N/A   Clear
4:15 AM 68.0 °F - 66.2 °F 94% 30.09 in 10.0 mi Calm Calm - N/A   Clear
4:35 AM 66.2 °F - 64.4 °F 94% 30.10 in 10.0 mi Calm Calm - N/A   Clear
4:55 AM 66.2 °F - 64.4 °F 94% 30.10 in 10.0 mi Calm Calm - N/A   Clear
5:15 AM 66.2 °F - 64.4 °F 94% 30.10 in 10.0 mi Calm Calm - N/A   Clear
5:35 AM 66.2 °F - 66.2 °F 100% 30.11 in 10.0 mi Calm Calm - N/A   Clear
5:55 AM 66.2 °F - 66.2 °F 100% 30.11 in 10.0 mi Calm Calm - N/A   Clear
6:15 AM 66.2 °F - 64.4 °F 94% 30.11 in 8.0 mi Calm Calm - N/A   Clear
6:35 AM 66.2 °F - 66.2 °F 100% 30.12 in 7.0 mi Calm Calm - N/A   Clear
6:45 AM 66.2 °F - 66.2 °F 100% 30.12 in 6.0 mi Calm Calm - N/A   Mostly Cloudy
7:45 AM 71.6 °F - 71.6 °F 100% 30.13 in 5.0 mi Calm Calm - N/A   Partly Cloudy
8:45 AM 73.4 °F - 71.6 °F 94% 30.14 in 7.0 mi Calm Calm - N/A   Clear
9:45 AM 78.8 °F - 71.6 °F 78% 30.14 in 10.0 mi SE 4.6 mph - N/A   Clear
10:50 AM 82.4 °F 87.2 °F 71.6 °F 70% 30.14 in 10.0 mi South 4.6 mph - N/A   Clear
11:45 AM 84.2 °F 87.3 °F 68.0 °F 58% 30.14 in 10.0 mi South 4.6 mph - N/A   Scattered Clouds
12:47 PM 84.2 °F 87.3 °F 68.0 °F 58% 30.12 in 10.0 mi SE 4.6 mph - N/A   Mostly Cloudy
1:46 PM 86.0 °F 89.4 °F 68.0 °F 55% 30.11 in 10.0 mi SSE 5.8 mph - N/A   Scattered Clouds
2:52 PM 87.8 °F 91.4 °F 68.0 °F 52% 30.09 in 10.0 mi SE 4.6 mph - N/A   Mostly Cloudy
3:45 PM 87.8 °F 90.4 °F 66.2 °F 49% 30.07 in 10.0 mi ENE 5.8 mph - N/A   Scattered Clouds
4:45 PM 87.8 °F 89.4 °F 64.4 °F 46% 30.07 in 10.0 mi NE 4.6 mph - N/A   Partly Cloudy
5:56 PM 86.0 °F 89.4 °F 68.0 °F 55% 30.07 in 10.0 mi East 5.8 mph - N/A   Scattered Clouds
6:51 PM 84.2 °F 87.3 °F 68.0 °F 58% 30.06 in 10.0 mi ESE 5.8 mph - N/A   Partly Cloudy
7:48 PM 80.6 °F 84.6 °F 71.6 °F 74% 30.07 in 10.0 mi ESE 4.6 mph - N/A   Scattered Clouds
8:47 PM 78.8 °F - 69.8 °F 74% 30.08 in 10.0 mi SE 4.6 mph - N/A   Partly Cloudy
9:15 PM 77.0 °F - 68.0 °F 74% 30.08 in 10.0 mi SE 4.6 mph - N/A   Clear
9:35 PM 77.0 °F - 68.0 °F 74% 30.09 in 10.0 mi SE 5.8 mph - N/A   Clear
9:55 PM 77.0 °F - 68.0 °F 74% 30.09 in 10.0 mi SE 4.6 mph - N/A   Clear
10:15 PM 75.2 °F - 68.0 °F 78% 30.10 in 10.0 mi Calm Calm - N/A   Clear
10:35 PM 77.0 °F - 68.0 °F 74% 30.10 in 10.0 mi Calm Calm - N/A   Clear
10:55 PM 75.2 °F - 68.0 °F 78% 30.10 in 10.0 mi Calm Calm - N/A   Clear
11:15 PM 75.2 °F - 68.0 °F 78% 30.10 in 10.0 mi Calm Calm - N/A   Clear
11:35 PM 77.0 °F - 68.0 °F 74% 30.11 in 10.0 mi Calm Calm - N/A   Clear
11:55 PM 75.2 °F - 68.0 °F 78% 30.11 in 10.0 mi Calm Calm - N/A   Clear